Miscellaneous Local Product
Issued by NWS Hastings, NE

Home | Current Version | Previous Version | Text Only | Print | Product List | Glossary Off
Versions: 1 2 3 4 5 6 7 8 9 10 11 12 13 14 15 16 17 18 19 20 21 22 23 24 25 26 27 28 29 30 31 32 33 34 35 36 37 38 39 40 41 42 43 44 45 46 47 48 49 50

000
AXUS43 KGID 220402
MISGRI

GID CWA HOURLY WEATHER ROUNDUP
NATIONAL WEATHER SERVICE HASTINGS NE
1100 PM CDT MON AUG 21 2017

NOTE: "FAIR" INDICATES FEW OR NO CLOUDS BELOW 12,000 FEET WITH NO
SIGNIFICANT WEATHER AND/OR OBSTRUCTIONS TO VISIBILITY.

...SOUTH CENTRAL NEBRASKA...

CITY           SKY/WX    TMP DP  RH WIND       PRES   REMARKS
GRAND ISLAND   CLOUDY    69  66  90 NE10      30.05R
HASTINGS       CLOUDY    70  65  84 NE18G24   30.04R
KEARNEY        CLOUDY    70  66  87 NE14      30.06R
ORD            CLEAR     65  62  90 N6        30.07R
YORK           MOCLDY    68  66  94 NE21      30.01R
AURORA         CLOUDY    68  66  92 NE13G18   30.04R
LEXINGTON      CLOUDY    74  65  74 NE9       30.07R
HOLDREGE       CLOUDY    72  65  78 N17G26    30.05R
HEBRON         MOCLDY    73  71  93 CALM      29.95S

...NEBRASKA PANHANDLE...

CITY           SKY/WX    TMP DP  RH WIND       PRES   REMARKS
CHADRON        CLEAR     59  46  62 W3        30.19R
ALLIANCE       CLEAR     57  48  72 N9        30.20R
SCOTTSBLUFF    CLEAR     62  50  64 NE8       30.21R
SIDNEY         CLEAR     64  50  60 NE7       30.23R

...WESTERN AND NORTH CENTRAL NEBRASKA...

CITY           SKY/WX    TMP DP  RH WIND       PRES   REMARKS
VALENTINE      CLEAR     67  48  50 N9        30.14R
AINSWORTH      CLEAR     64  62  95 N6        30.12R
ONEILL         FOG       64  64 100 CALM      30.08R VSB 1
BROKEN BOW     CLEAR     70  65  84 N10       30.09R
IMPERIAL       CLEAR     67  62  84 N9        30.13R
NORTH PLATTE   CLEAR     68  65  90 N6        30.10R
MCCOOK         CLEAR     74  66  76 N20G30    30.06R

...EASTERN NEBRASKA...

CITY           SKY/WX    TMP DP  RH WIND       PRES   REMARKS
NORFOLK        CLOUDY    64  64 100 N3        30.02S
SO SIOUX CITY  CLOUDY    65  65 100 NW7       29.99F
TEKAMAH        LGT RAIN  66  64  93 SW3       29.97F
COLUMBUS       LGT RAIN  67  65  93 CALM      30.03S
ALBION         CLOUDY    65  64  96 NW3       30.05S
OMAHA EPPLEY   TSTM      67  63  87 SE7       30.00R
OFFUTT AFB     TSTM      66  64  94 NE6       30.00R
MILLARD        TSTM      68  66  94 CALM      30.00R
LINCOLN        CLOUDY    68  64  87 NE17G31   30.00R
NEBRASKA CITY  MOCLDY    75  75 100 S6        29.94F
BEATRICE       MOCLDY    74  71  88 CALM      29.95R
FALLS CITY     CLOUDY    71  69  93 S8        29.93R

...NORTHERN KANSAS...

CITY           SKY/WX    TMP DP  RH WIND       PRES   REMARKS
GOODLAND       CLEAR     73  68  84 N13       30.10R
HILL CITY      MOCLDY    75  68  78 NW5       29.99R
NORTON         CLEAR     73  64  73 N14G21    30.01
PHILLIPSBURG   CLEAR     81  64  57 N7        29.97R
SMITH CENTER   CLOUDY    72  64  78 NW9       29.97R
HAYS           CLEAR     77  66  68 SW9       29.97R
RUSSELL        CLEAR     77  65  66 S10       29.95R
CONCORDIA      PTCLDY    78  72  81 S8        29.94R
SALINA         CLOUDY    83  70  64 S9        29.95R
TOPEKA         TSTM      71  71 100 E8        29.96F FOG



USA.gov is the U.S. government's official web portal to all federal, state and local government web resources and services.